Starlink 32351

operational
NORAD ID: 61529 Int'l Des: 2024-183 Owner: SPXS Country: US Constellation: starlink
LEOCIRCULAR

About Starlink 32351

Description loading...

Live Position

Loading 3D Globe...

Upcoming Passes

Altitude History

Altitude vs Time

uPlot chart will show altitude changes over time

Two-Line Element Set

1 61529U 24183W 25306.45924344 .00002932 00000-0 11109-3 0 9993
2 61529 53.1613 10.5408 0001246 52.5219 307.5895 15.30194083 60219
Epoch: Nov 2, 2025 • Age: 16 hours

Current Status

Altitude 477.5 km
Velocity 7.63 km/s
Sub-Earth Point -5.01°S, 95.84°E
Launch Date Oct 15, 2024
Age 1 years
Type internet

Technical Details

Classification Payload
Mass 730.00 kg
Dry Mass 700.00 kg
Total Mass 730.00 kg
Length 0.30 m
Diameter 4.10 m
Span 29.00 m
Shape Box + pan
Manufacturer SPXS
Bus Type Starlink V2M
Phase Status In Orbit
Owner/State SPXS/US

Large Constellations

Loading constellations...